Home > Weather > Missoula > Past weeks

Flag for USA Past Weather in Missoula, Montana, USA — Yesterday and Last 2 Weeks

Now
48 °F

More clouds than sun.


Feels Like: 47 °F
Forecast: 44 / 62 °F
Wind: 3 mph from West

Location: Missoula International Airport

Current Time: May 24, 2016 at 11:47:46 AM

Latest Report: May 24, 2016 at 10:53 AM


Visibility: 10 mi

Pressure: 29.96 "Hg (26.64 "Hg at 971m altitude)

Humidity: 77%

Dew Point: 41 °F

Location of MissoulaLocation

Past Weather in Missoula — Graph

°F

Missoula Temperature Yesterday

Maximum temperature yesterday: 50 °F (at 11:53 AM)
Minimum temperature yesterday: 44 °F (at 4:53 AM)
Average temperature yesterday: 47 °F

High & Low Weather Summary for the Past Weeks

 TemperatureHumidityPressure
High79 °F (May 18, 4:53 PM)100% (May 9, 8:00 PM)30.35 "Hg (May 9, 8:00 PM)
Low35 °F (May 12, 5:53 AM)23% (May 12, 5:53 PM)29.64 "Hg (May 19, 2:53 AM)
Average52 °F64%29.99 "Hg
* Reported May 9 9:53 AM — May 24 9:53 AM, Missoula, Weather by CustomWeather, © 2016

Note: Actual official high and low records may vary slightly from our data, if they occured in-between our weather recording intervals... More about our weather records

Advertising

Missoula Weather History for the Previous 24 Hours

Scroll right to see more
 ConditionsComfort  
Time TempWeatherWind HumidityBarometerVisibility
9:53 AM
Tue, May 24
46 °FLight rain. Mostly cloudy.3 mph86%29.97 "Hg10 mi
8:53 AM44 °FLight rain. More clouds than sun.6 mph89%29.97 "Hg10 mi
7:53 AM44 °FLight rain. Low clouds.No wind89%29.96 "Hg9 mi
6:53 AM43 °FLight rain. Overcast.3 mph89%29.96 "Hg8 mi
5:53 AM43 °FLight rain. Mostly cloudy.No wind93%29.95 "Hg9 mi
4:53 AM43 °FLight rain. Mostly cloudy.No wind93%29.95 "Hg9 mi
3:53 AM43 °FLight rain. Mostly cloudy.No wind93%29.94 "Hg8 mi
2:53 AM43 °FLight rain. Overcast.No wind97%29.94 "Hg7 mi
1:53 AM44 °FLight rain. Overcast.No wind93%29.94 "Hg7 mi
12:53 AM44 °FLight rain. Overcast.No wind96%29.95 "Hg9 mi
11:53 PM
Mon, May 23
45 °FLight rain. Overcast.3 mph93%29.94 "Hg10 mi
10:53 PM45 °FLight rain. Mostly cloudy.No wind93%29.95 "Hg8 mi
9:53 PM46 °FLight rain. Overcast.No wind83%29.94 "Hg9 mi
8:53 PM46 °FLight rain. Fog.No wind86%29.93 "Hg6 mi
7:53 PM47 °FLight rain. Mostly cloudy.3 mph83%29.92 "Hg6 mi
6:53 PM48 °FMostly cloudy.5 mph77%29.91 "Hg10 mi
5:53 PM48 °FLight rain. Overcast.No wind77%29.91 "Hg10 mi
4:53 PM47 °FLight rain. Cloudy.7 mph80%29.90 "Hg10 mi
3:53 PM49 °FLight rain. Mostly cloudy.3 mph74%29.89 "Hg9 mi
3:00 PM49 °FRain. Mostly cloudy.No wind77%29.86 "Hg5 mi
1:53 PM50 °FLight rain. Mostly cloudy.No wind71%29.86 "Hg10 mi
12:53 PM50 °FLight rain. Mostly cloudy.6 mph68%29.85 "Hg10 mi
11:53 AM50 °FMore clouds than sun.N/A68%29.85 "Hg10 mi
Weather by CustomWeather, © 2016

See weather overviewHow to use our weather pages